Date,TemperatureHighF,TemperatureAvgF,TemperatureLowF,DewpointHighF,DewpointAvgF,DewpointLowF,HumidityHigh,HumidityAvg,HumidityLow,PressureMaxIn,PressureMinIn,WindSpeedMaxMPH,WindSpeedAvgMPH,GustSpeedMaxMPH,PrecipitationSumIn
2013-1-1,33.8,25.9,19.0,25.3,16.8,12.0,76,68,54,30.24,30.07,22,9,22,0.00
2013-1-2,37.9,25.9,12.9,17.4,11.1,4.1,71,54,37,30.32,30.21,14,6,14,0.00
2013-1-3,37.9,27.4,18.7,12.4,7.2,2.5,60,43,29,30.30,30.11,24,11,24,0.00
2013-1-4,46.4,31.1,23.9,17.8,11.3,4.5,63,44,30,30.14,30.07,14,6,14,0.00
2013-1-5,43.2,32.0,26.6,20.4,16.7,12.9,68,54,36,30.26,30.10,14,6,14,0.00
2013-1-6,44.8,34.7,26.4,21.4,13.8,9.5,72,43,26,30.09,29.88,20,6,20,0.00
2013-1-7,46.4,35.8,25.7,22.8,19.2,16.3,73,52,30,29.95,29.69,17,4,17,0.00
2013-1-8,50.4,40.9,31.3,24.1,18.1,7.2,60,41,19,30.03,29.71,24,8,24,0.00
2013-1-9,56.5,45.8,33.3,25.8,21.1,16.3,57,38,21,30.01,29.73,22,8,22,0.00
2013-1-10,55.8,35.1,18.1,30.4,21.3,11.8,82,59,26,29.74,29.56,14,6,14,0.00
2013-1-11,18.3,11.1,7.5,12.2,7.1,3.9,89,84,70,30.12,29.74,15,5,15,0.00
2013-1-12,19.4,9.4,0.7,7.7,4.1,-2.4,87,79,55,30.13,30.08,13,4,13,0.00
2013-1-13,22.6,10.9,3.9,9.0,2.9,-2.8,78,70,53,30.18,30.11,21,6,21,0.00
2013-1-14,19.8,13.7,7.9,7.7,2.9,0.4,75,62,46,30.15,30.00,20,11,20,0.00
2013-1-15,34.9,25.0,17.6,23.1,16.0,7.6,79,68,57,30.13,29.99,26,13,26,0.00
2013-1-16,52.2,37.0,26.8,24.6,19.7,16.3,69,50,29,30.31,30.08,24,9,24,0.00
2013-1-17,45.7,35.5,27.1,22.0,18.0,15.6,62,49,37,30.33,30.02,23,11,23,0.00
2013-1-18,59.5,43.2,35.1,19.2,15.3,1.4,47,34,10,30.05,29.91,18,8,18,0.00
2013-1-19,44.1,34.5,20.1,26.4,19.4,12.6,93,57,28,30.26,30.03,15,4,15,0.00
2013-1-20,36.0,22.6,14.5,20.8,15.1,9.5,82,73,51,30.43,30.11,15,4,15,0.00
2013-1-21,33.4,19.5,11.3,18.0,12.3,7.9,90,75,50,30.28,30.02,8,2,8,0.00
2013-1-22,49.3,34.3,13.6,17.5,14.5,10.2,90,47,24,30.08,30.01,13,5,13,0.00
2013-1-23,28.2,21.7,16.0,17.8,14.6,11.7,86,74,58,30.20,29.94,8,2,8,0.00
2013-1-24,55.4,37.1,18.5,26.2,20.0,14.2,85,53,29,30.11,29.88,26,4,26,0.00
2013-1-25,55.4,38.0,22.3,26.8,23.1,16.8,86,57,30,30.11,29.94,13,4,13,0.00
2013-1-26,68.2,45.0,33.6,28.8,24.9,20.7,69,48,17,29.95,29.72,14,3,14,0.00
2013-1-27,38.3,32.3,28.0,33.8,29.4,24.3,98,89,65,29.87,29.73,10,2,10,0.00
2013-1-28,43.3,30.7,24.6,28.9,20.3,9.3,98,69,28,29.89,29.75,14,3,14,0.04
2013-1-29,28.6,20.1,5.4,19.7,10.3,-0.6,80,66,48,30.17,29.73,17,5,17,0.00
2013-1-30,39.6,22.9,7.7,28.4,17.3,2.6,95,80,48,30.06,29.83,21,5,21,0.01
2013-1-31,29.7,15.5,0.9,24.1,10.6,-2.5,93,81,64,30.21,30.00,17,5,17,0.00
2013-2-1,49.5,38.1,29.7,33.5,26.8,22.9,81,64,38,30.20,29.99,19,7,19,0.00
2013-2-2,57.2,38.8,24.4,27.5,21.9,18.3,78,53,26,30.28,30.15,27,7,27,0.00
2013-2-3,58.1,40.4,31.1,23.6,19.3,1.7,66,45,11,30.15,29.93,20,8,20,0.00
2013-2-4,54.9,41.8,32.5,25.6,21.7,14.2,61,47,21,29.94,29.82,21,7,21,0.00
2013-2-5,53.8,41.5,30.6,27.3,24.6,22.0,75,52,34,29.98,29.76,13,5,13,0.00
2013-2-6,55.4,39.9,30.7,28.8,17.7,6.8,71,44,16,30.08,29.77,16,5,16,0.00
2013-2-7,48.9,35.5,24.8,22.9,19.1,16.5,78,53,29,30.10,29.92,9,2,9,0.00
2013-2-8,50.4,34.3,23.9,23.6,19.3,15.3,79,57,25,29.97,29.88,6,2,6,0.00
2013-2-9,50.2,34.1,21.9,31.2,22.8,18.4,89,66,31,29.93,29.80,12,3,12,0.00
2013-2-10,29.8,25.1,14.5,27.5,20.1,12.9,95,82,59,30.14,29.93,19,5,19,0.00
2013-2-11,35.1,23.5,13.5,19.0,13.0,9.0,94,65,48,30.12,29.94,21,11,21,0.00
2013-2-12,47.1,30.6,21.9,20.8,13.9,9.4,61,50,32,30.07,29.89,17,10,17,0.00
2013-2-13,52.9,36.1,28.4,34.9,23.6,14.7,92,63,29,30.14,29.88,25,10,25,0.00
2013-2-14,35.6,29.2,25.9,25.7,19.4,11.8,93,69,37,30.32,30.14,17,7,17,0.00
2013-2-15,47.3,33.1,24.3,30.2,24.4,20.9,96,72,46,30.34,30.13,17,6,17,0.02
2013-2-16,54.9,40.5,27.9,24.8,22.2,19.7,73,50,29,30.14,29.76,21,10,21,0.00
2013-2-17,49.3,37.8,29.3,29.0,23.3,14.9,80,57,27,29.99,29.69,20,8,20,0.00
2013-2-18,46.6,30.1,17.1,26.2,19.9,13.6,92,68,34,30.12,29.99,10,3,10,0.00
2013-2-19,33.3,21.3,12.9,21.3,15.6,10.6,93,79,55,30.04,29.80,7,2,7,0.00
2013-2-20,35.1,25.0,15.8,21.4,17.3,13.7,92,74,50,29.93,29.82,9,3,9,0.00
2013-2-21,49.8,30.3,20.5,28.2,21.1,17.2,93,71,31,29.98,29.89,14,2,14,0.01
2013-2-22,46.8,34.0,24.6,20.3,16.4,7.4,75,51,21,29.95,29.67,17,9,17,0.00
2013-2-23,41.9,34.1,29.1,33.3,22.2,13.4,95,65,32,30.00,29.62,17,6,17,0.01
2013-2-24,49.3,34.7,23.7,24.6,17.9,11.4,80,53,24,30.15,30.00,14,6,14,0.00
2013-2-25,50.5,38.1,27.5,22.7,14.8,8.9,63,41,19,30.02,29.81,20,9,20,0.00
2013-2-26,48.7,35.9,26.1,22.3,16.0,7.0,73,47,21,30.22,29.92,18,7,18,0.00
2013-2-27,50.7,35.8,20.1,21.0,14.6,5.7,81,46,18,30.23,30.14,14,5,14,0.00
2013-2-28,52.7,37.6,28.4,20.5,15.6,10.7,63,42,19,30.26,30.15,19,6,19,0.00
2013-3-1,66.2,45.4,28.9,28.1,22.7,16.6,61,42,20,30.25,30.15,21,8,21,0.00
2013-3-2,67.1,49.8,37.8,28.2,26.6,20.7,62,42,18,30.20,29.89,18,6,18,0.00
2013-3-3,58.5,39.0,24.6,33.3,27.5,16.6,98,66,35,29.89,29.58,27,4,27,0.01
2013-3-4,34.7,22.6,12.0,17.3,13.7,7.5,83,69,42,30.34,29.89,24,10,24,0.00
2013-3-5,36.7,21.9,5.7,22.0,13.9,2.8,90,73,46,30.32,30.05,6,2,6,0.00
2013-3-6,41.0,27.4,13.6,24.9,20.2,11.1,92,75,48,30.06,29.76,7,2,7,0.00
2013-3-7,59.4,41.8,25.9,29.4,21.0,0.7,91,54,10,30.05,29.80,17,4,17,0.00
2013-3-8,52.7,38.1,28.6,29.0,26.4,22.6,84,65,38,30.04,29.88,8,2,8,0.00
2013-3-9,51.4,36.2,23.4,28.2,19.0,11.2,94,56,21,30.25,29.94,22,6,22,0.00
2013-3-10,64.8,41.6,17.8,24.9,14.0,3.0,88,42,10,30.23,29.99,15,5,15,0.00
2013-3-11,55.2,39.4,29.7,26.8,21.1,13.4,64,48,26,30.30,29.99,22,7,22,0.00
2013-3-12,50.7,35.9,22.6,24.5,20.0,13.7,92,57,25,30.30,30.03,11,4,11,0.00
2013-3-13,72.1,53.6,37.0,26.0,20.6,12.8,51,31,11,30.12,30.04,23,7,23,0.00
2013-3-14,72.0,56.4,40.6,29.9,24.5,10.8,59,33,11,30.15,29.94,19,4,19,0.00
2013-3-15,69.1,53.7,33.6,29.3,21.6,7.7,77,34,10,30.09,29.89,24,7,24,0.00
2013-3-16,52.9,36.0,23.9,28.7,25.7,22.2,94,70,37,30.08,29.71,10,3,10,0.00
2013-3-17,47.8,33.8,20.3,32.8,17.0,-6.9,93,57,10,29.95,29.53,25,8,25,0.00
2013-3-18,46.8,28.9,12.2,18.4,8.8,-9.0,81,49,10,29.99,29.83,24,6,24,0.00
2013-3-19,45.3,30.3,21.4,25.7,18.8,14.6,92,64,33,30.28,29.99,9,3,9,0.01
2013-3-20,64.0,37.2,15.1,21.4,15.8,8.7,87,50,13,30.19,29.60,9,2,9,0.00
2013-3-21,41.7,35.4,30.6,29.3,22.6,18.2,65,59,49,29.63,29.58,14,5,15,0.00
2013-3-23,38.8,38.8,37.8,4.1,-4.7,-5.1,23,15,15,30.31,30.21,11,7,11,0.00
2013-3-24,38.8,38.8,38.8,-4.8,-4.8,-4.8,15,15,15,30.31,30.31,7,7,11,0.00
2013-3-25,38.8,38.8,38.8,-4.8,-4.8,-4.8,15,15,15,30.31,30.31,7,7,11,0.00
2013-3-26,38.8,38.8,38.8,-4.8,-4.8,-4.8,15,15,15,30.31,30.31,7,7,11,0.00
2013-3-27,38.8,38.8,38.8,-4.8,-4.8,-4.8,15,15,15,30.31,30.31,7,7,11,0.00
2013-3-28,38.8,38.8,38.8,-4.8,-4.8,-4.8,15,15,15,30.31,30.31,7,7,11,0.00
2013-3-29,38.8,38.8,38.8,-4.8,-4.8,-4.8,15,15,15,30.31,30.31,7,7,11,0.00
2013-3-30,38.8,38.8,38.8,-4.8,-4.8,-4.8,15,15,15,30.31,30.31,7,7,11,0.00
2013-3-31,38.8,38.8,38.8,-4.8,-4.8,-4.8,15,15,15,30.31,30.31,7,7,11,0.00
2013-4-1,38.8,38.8,38.8,-4.8,-4.8,-4.8,15,15,15,30.31,30.31,7,7,11,0.00
2013-4-2,38.8,38.8,38.8,-4.8,-4.8,-4.8,15,15,15,30.31,30.31,7,7,11,0.00
2013-4-3,38.8,38.8,38.8,-4.8,-4.8,-4.8,15,15,15,30.31,30.31,7,7,11,0.00
2013-4-4,38.8,38.8,38.8,-4.8,-4.8,-4.8,15,15,15,30.31,30.31,7,7,11,0.00
2013-4-5,38.8,38.8,38.8,-4.8,-4.8,-4.8,15,15,15,30.31,30.31,7,7,11,0.00
2013-4-6,69.6,49.9,38.8,39.9,14.6,-4.8,74,29,12,30.31,29.90,19,7,19,0.02
2013-4-7,66.2,49.5,33.8,42.1,36.1,27.8,98,64,24,29.96,29.72,14,3,14,0.00
2013-4-8,34.0,23.8,19.2,33.2,20.9,17.1,98,89,77,30.43,29.87,17,1,17,0.00
2013-4-9,39.2,25.7,17.1,20.9,16.2,9.2,94,70,37,30.54,30.42,7,1,7,0.00
2013-4-10,56.1,35.4,15.6,30.6,20.1,12.2,91,58,29,30.42,29.95,12,3,12,0.00
2013-4-11,61.2,47.5,36.1,35.0,30.0,21.7,79,53,24,30.08,29.90,26,9,26,0.00
2013-4-12,59.4,44.4,33.6,35.2,24.8,8.4,90,51,14,30.20,29.89,17,6,17,0.00
2013-4-13,52.7,39.4,35.6,39.8,30.3,21.9,95,71,45,29.89,29.58,21,5,21,0.00
2013-4-14,36.5,33.0,29.3,23.7,21.4,18.8,75,63,50,29.85,29.77,16,9,16,0.00